All auctions Construction Equipment Dieselgenerator Volvo Penta TAD 1631 G, 500 KVA i Ljudisolerad Container.

Dieselgenerator Volvo Penta TAD 1631 G, 500 KVA i Ljudisolerad Container. Malmö

All amounts in SEK
Highest bid 185 000,-
Reserve Price: (not met)
Increment: 2 000,-
VAT All bids ex VAT. VAT of 25% will be added.
Charges: Handling charges will be applied.
You confirm your bid in the next step. Read more about autobids
Started: 07.04.2021 14:00:00 Auction closed: 19.04.2021 14:24:56 CET

Product information

Features

  • BrandVolvo
  • ModelPenta TAD
  • Year Model1998
  • Hours625

Transport information

  • Transport weight (kg)13500

Additional features

    Other information

    Motor: Volvo Penta TAD 1631 G, 660 Hk/ 500 kW.
    Generator: 500 KVA/ 400 kW. 722 ampere. 400 Volt. 50 Hz. Cos 0.8.
    Tillverkningsår: 1998.
    Drifttimmar: 625 Stycken.

    Tillbehör:
    Ljudisolerad container.
    En 8 kubiks Dieseltank monterad inne i Container.
    Utan på liggande Ljuddämpare.

    Längd: 12 .0 0 meter
    Bredd: 2. 45 meter
    Höjd: 2.80 meter
    Vikt: 13 500 kg.

    Leveranstid: Vecka 16 -17.
    Leveransplats: Malmö

    Important sales information

    Seller Förmedlingsuppdrag
    Location Malmö, Sweden

    General conditions

    • Sales commission is included in your bid. Handling charges and VAT is added when applicable.
    • Payment charges (kr 250,- / EUR 25) will be added.
    • All invoices have 5 days payment terms.
    • Payment must be registered before seller can be contacted for collection of purchased items
    • All purchases must be collected within 21 days. NOTE! We expect buyer and seller to cooperate on arranging collection according to the current restrictions and instructions from the authorities.
    • An agreement MUST be made with the seller prior to collection
    • The buyer is responsible for all costs with regards to pick up, transport and export.

    Bids

    CUSTOMER ID Date/time Bid
    5010338 19.04.2021 14:19:56 185 000
    231083 19.04.2021 14:17:49 183 000
    5010338 19.04.2021 14:16:41 181 000
    231083 19.04.2021 14:14:22 179 000
    5010338 19.04.2021 14:12:49 177 000
    231083 19.04.2021 14:11:22 175 000
    5010338 19.04.2021 14:10:24 173 000
    231083 19.04.2021 14:08:56 171 000
    5010338 19.04.2021 14:07:07 170 000
    231083 19.04.2021 14:05:36 167 000
    5010338 19.04.2021 14:04:58 166 000
    231083 19.04.2021 14:04:38 163 000
    5010338 19.04.2021 14:02:26 161 000
    231083 19.04.2021 14:01:50 159 000
    5010338 19.04.2021 14:00:47 158 000
    231083 19.04.2021 14:00:04 155 000
    5010338 19.04.2021 14:00:04 152 000
    5027895 19.04.2021 13:59:16 148 000
    5010338 19.04.2021 13:57:26 147 000
    231083 19.04.2021 13:58:45 146 000
    5010338 19.04.2021 13:57:26 144 000
    231083 19.04.2021 13:56:33 142 000
    5010338 19.04.2021 13:53:44 141 000
    231083 19.04.2021 13:55:52 140 000
    231083 19.04.2021 13:53:55 136 000
    5010338 19.04.2021 13:50:08 134 000
    231083 19.04.2021 13:51:31 132 000
    5010338 19.04.2021 13:49:09 130 000
    5027895 19.04.2021 13:48:04 128 000
    5026387 19.04.2021 13:45:59 126 000
    231083 19.04.2021 13:45:32 124 000
    5026387 19.04.2021 13:44:27 122 000
    5027895 19.04.2021 13:41:50 120 000
    231083 19.04.2021 13:40:55 118 000
    5027895 19.04.2021 13:36:39 116 000
    5026387 19.04.2021 12:51:53 115 000
    5027895 19.04.2021 13:36:11 112 000
    5027895 19.04.2021 13:00:44 108 000
    5010338 19.04.2021 12:26:54 104 000
    5026387 19.04.2021 08:12:31 102 000
    5010338 19.04.2021 07:19:19 101 000
    5026387 19.04.2021 08:12:25 100 000
    5026387 19.04.2021 08:12:19 96 000
    5026387 19.04.2021 08:12:11 92 000
    5010338 19.04.2021 07:18:23 89 000
    5026387 09.04.2021 09:29:28 88 000
    5010338 19.04.2021 07:17:13 85 000
    5020231 15.04.2021 23:12:20 81 000
    5020231 15.04.2021 23:11:46 77 000
    1312644 10.04.2021 23:22:36 73 000
    5020231 09.04.2021 18:29:33 69 000
    5020231 09.04.2021 18:28:28 65 000
    5020231 09.04.2021 18:27:49 55 200
    5016283 08.04.2021 21:43:24 51 200
    Minimum start bid 51200
    *= Autobid